STARLINK-34618

Last updated on Sat Jul 19 2025 00:02:09 GMT+0000 (Coordinated Universal Time)

1 64770U 25147R 25199.58335648 -.01580516 00000+0 -10997-1 0 9995 2 64770 53.1571 256.8305 0000932 84.3759 341.6306 15.76841815 2705
UTC large
Height (km)
Speed (km/s)
/
Latitude / Longitude
Inclination (degrees)
Orbital Period (minutes)
Azimuth
Elevation
Range (km)
Doppler Factor

Next 0 passes for location: London (51.5072 / 0.1276)

Sorry there are no passes over London.